When you browse on this site, cookies collect data to enhance your experience and personalize the content and advertising you see.
Visit our Privacy Policy to learn more. By continuing to use the site, you agree to this use of cookies and data.
  • In Hungary
  • List of Countries
  • For 7 days
  • Water Temperature
  • Weather Map
  • News
  • Weather Widgets
  • user-avatar
    Login

    Hourly Weather Ust-Rybnica

    Today, 20 October, Sunday

    Time Temperature Precipitation Wind Pressure Humidity
    00:00 +12°C° 0 mm 2 mps 751 mmHg 84%
    01:00 +12°C° 0 mm 2 mps 751 mmHg 85%
    02:00 +10°C° 0 mm 2 mps 751 mmHg 86%
    03:00 +10°C° 0 mm 2 mps 751 mmHg 87%
    04:00 +10°C° 0 mm 2 mps 751 mmHg 89%
    05:00 +10°C° 0 mm 2 mps 751 mmHg 90%
    06:00 +10°C° 0 mm 2 mps 752 mmHg 89%
    07:00 +11°C° 0 mm 3 mps 752 mmHg 88%
    08:00 +11°C° 0 mm 3 mps 752 mmHg 87%
    09:00 +13°C° 0 mm 3 mps 752 mmHg 82%
    10:00 +14°C° 0 mm 3 mps 752 mmHg 77%
    11:00 +15°C° 0 mm 4 mps 752 mmHg 72%
    12:00 +17°C° 0 mm 4 mps 752 mmHg 69%
    13:00 +17°C° 0 mm 4 mps 752 mmHg 67%
    14:00 +18°C° 0 mm 4 mps 752 mmHg 64%
    15:00 +17°C° 0 mm 3 mps 752 mmHg 70%
    16:00 +14°C° 0 mm 3 mps 752 mmHg 75%
    17:00 +13°C° 0 mm 3 mps 752 mmHg 81%
    18:00 +13°C° 0 mm 3 mps 752 mmHg 82%
    19:00 +12°C° 0 mm 3 mps 752 mmHg 84%
    20:00 +12°C° 0 mm 3 mps 752 mmHg 85%
    21:00 +12°C° 0 mm 3 mps 752 mmHg 85%
    22:00 +12°C° 0 mm 3 mps 752 mmHg 85%
    23:00 +12°C° 0 mm 3 mps 752 mmHg 85%

    Tomorrow, 21 October, Monday

    Time Temperature Precipitation Wind Pressure Humidity
    00:00 +11°C° 0 mm 3 mps 752 mmHg 85%
    01:00 +11°C° 0 mm 3 mps 752 mmHg 85%
    02:00 +11°C° 0 mm 3 mps 752 mmHg 86%
    03:00 +10°C° 0 mm 3 mps 752 mmHg 85%
    04:00 +10°C° 0 mm 3 mps 752 mmHg 85%
    05:00 +10°C° 0 mm 3 mps 751 mmHg 84%
    06:00 +10°C° 0 mm 3 mps 752 mmHg 81%
    07:00 +11°C° 0 mm 4 mps 752 mmHg 78%
    08:00 +12°C° 0 mm 4 mps 752 mmHg 74%
    09:00 +13°C° 0 mm 4 mps 752 mmHg 71%
    10:00 +14°C° 0 mm 5 mps 752 mmHg 67%
    11:00 +15°C° 0 mm 5 mps 752 mmHg 63%
    12:00 +16°C° 0 mm 5 mps 751 mmHg 64%
    13:00 +16°C° 0 mm 5 mps 751 mmHg 64%
    14:00 +16°C° 0 mm 5 mps 751 mmHg 64%
    15:00 +15°C° 0 mm 4 mps 751 mmHg 69%
    16:00 +14°C° 0 mm 4 mps 751 mmHg 74%
    17:00 +13°C° 0 mm 3 mps 751 mmHg 79%
    18:00 +13°C° 0 mm 3 mps 751 mmHg 81%
    19:00 +12°C° 0 mm 3 mps 751 mmHg 84%
    20:00 +12°C° 0 mm 3 mps 751 mmHg 87%
    21:00 +12°C° 0 mm 3 mps 751 mmHg 88%
    22:00 +13°C° 0 mm 2 mps 751 mmHg 90%
    23:00 +12°C° 0 mm 2 mps 751 mmHg 92%

    Day after tomorrow, 22 October, Tuesday

    Time Temperature Precipitation Wind Pressure Humidity
    00:00 +12°C° 0 mm 2 mps 751 mmHg 92%
    01:00 +12°C° 0 mm 2 mps 752 mmHg 93%
    02:00 +12°C° 0 mm 1 mps 752 mmHg 93%
    03:00 +12°C° 0 mm 1 mps 752 mmHg 93%
    04:00 +12°C° 0 mm 1 mps 752 mmHg 94%
    05:00 +12°C° 0 mm 1 mps 752 mmHg 94%
    06:00 +12°C° 0 mm 1 mps 752 mmHg 93%
    07:00 +13°C° 0 mm 1 mps 752 mmHg 92%
    08:00 +13°C° 0 mm 1 mps 752 mmHg 91%
    09:00 +14°C° 0 mm 1 mps 752 mmHg 87%
    10:00 +15°C° 0 mm 1 mps 752 mmHg 83%
    11:00 +16°C° 0 mm 1 mps 752 mmHg 79%
    12:00 +18°C° 0 mm 1 mps 752 mmHg 76%
    13:00 +18°C° 0 mm 1 mps 752 mmHg 74%
    14:00 +18°C° 0 mm 2 mps 752 mmHg 71%
    15:00 +18°C° 0 mm 1 mps 752 mmHg 76%
    16:00 +16°C° 0 mm 1 mps 752 mmHg 80%
    17:00 +14°C° 0 mm 1 mps 752 mmHg 85%
    18:00 +14°C° 0 mm 1 mps 752 mmHg 86%
    19:00 +14°C° 0 mm 1 mps 752 mmHg 87%
    20:00 +13°C° 0 mm 1 mps 752 mmHg 87%
    21:00 +13°C° 0 mm 1 mps 752 mmHg 88%
    22:00 +13°C° 0 mm 1 mps 752 mmHg 88%
    23:00 +12°C° 0 mm 1 mps 752 mmHg 88%

    23 October, Wednesday

    Time Temperature Precipitation Wind Pressure Humidity
    00:00 +12°C° 0 mm 1 mps 751 mmHg 89%
    01:00 +12°C° 0 mm 1 mps 751 mmHg 89%
    02:00 +12°C° 0 mm 2 mps 751 mmHg 89%
    03:00 +10°C° 0 mm 2 mps 751 mmHg 90%
    04:00 +10°C° 0 mm 2 mps 751 mmHg 90%
    05:00 +10°C° 0 mm 2 mps 751 mmHg 91%
    06:00 +12°C° 0 mm 2 mps 751 mmHg 89%
    07:00 +12°C° 0 mm 2 mps 751 mmHg 87%
    08:00 +12°C° 0 mm 2 mps 751 mmHg 85%
    09:00 +14°C° 0 mm 2 mps 751 mmHg 79%
    10:00 +14°C° 0 mm 3 mps 751 mmHg 74%
    11:00 +17°C° 0 mm 3 mps 750 mmHg 68%
    12:00 +17°C° 0 mm 3 mps 750 mmHg 67%
    13:00 +18°C° 0 mm 4 mps 750 mmHg 65%
    14:00 +18°C° 0 mm 4 mps 749 mmHg 64%
    15:00 +17°C° 0 mm 4 mps 749 mmHg 68%
    16:00 +15°C° 0 mm 4 mps 749 mmHg 72%
    17:00 +14°C° 0 mm 4 mps 748 mmHg 76%
    18:00 +14°C° 0 mm 4 mps 748 mmHg 77%
    19:00 +14°C° 0 mm 4 mps 748 mmHg 77%
    20:00 +13°C° 0 mm 4 mps 748 mmHg 77%
    21:00 +13°C° 0 mm 4 mps 747 mmHg 79%
    22:00 +12°C° 0 mm 3 mps 747 mmHg 82%
    23:00 +12°C° 0 mm 3 mps 747 mmHg 84%

    24 October, Thursday

    Time Temperature Precipitation Wind Pressure Humidity
    00:00 +12°C° 0.8 mm 4 mps 747 mmHg 86%
    01:00 +12°C° 0.8 mm 4 mps 747 mmHg 89%
    02:00 +12°C° 0.8 mm 4 mps 747 mmHg 91%
    03:00 +12°C° 0.8 mm 4 mps 747 mmHg 92%
    04:00 +11°C° 0.8 mm 4 mps 747 mmHg 92%
    05:00 +11°C° 0.8 mm 4 mps 747 mmHg 93%
    06:00 +11°C° 0 mm 4 mps 747 mmHg 92%
    07:00 +11°C° 0 mm 4 mps 747 mmHg 92%
    08:00 +11°C° 0 mm 4 mps 747 mmHg 92%
    09:00 +12°C° 0 mm 4 mps 748 mmHg 88%
    10:00 +13°C° 0 mm 3 mps 748 mmHg 84%
    11:00 +13°C° 0 mm 3 mps 748 mmHg 81%
    12:00 +13°C° 0 mm 3 mps 748 mmHg 77%
    13:00 +13°C° 0 mm 3 mps 748 mmHg 74%
    14:00 +14°C° 0 mm 3 mps 748 mmHg 71%
    15:00 +13°C° 0 mm 3 mps 748 mmHg 75%
    16:00 +13°C° 0 mm 2 mps 749 mmHg 79%
    17:00 +12°C° 0 mm 2 mps 749 mmHg 83%
    18:00 +10°C° 0 mm 2 mps 749 mmHg 85%
    19:00 +9°C° 0 mm 2 mps 749 mmHg 87%
    20:00 +9°C° 0 mm 2 mps 749 mmHg 89%
    21:00 +8°C° 0 mm 2 mps 749 mmHg 89%
    22:00 +8°C° 0 mm 2 mps 749 mmHg 90%
    23:00 +7°C° 0 mm 2 mps 749 mmHg 91%

    25 October, Friday

    Time Temperature Precipitation Wind Pressure Humidity
    00:00 +8°C° 0 mm 1 mps 750 mmHg 92%
    01:00 +8°C° 0 mm 1 mps 750 mmHg 92%
    02:00 +7°C° 0 mm 1 mps 750 mmHg 93%
    03:00 +7°C° 0 mm 1 mps 750 mmHg 93%
    04:00 +7°C° 0 mm 1 mps 750 mmHg 93%
    05:00 +6°C° 0 mm 1 mps 750 mmHg 94%
    06:00 +7°C° 0 mm 1 mps 750 mmHg 92%
    07:00 +7°C° 0 mm 1 mps 750 mmHg 90%
    08:00 +7°C° 0 mm 1 mps 750 mmHg 89%
    09:00 +9°C° 0 mm 1 mps 751 mmHg 83%
    10:00 +10°C° 0 mm 1 mps 751 mmHg 78%
    11:00 +11°C° 0 mm 1 mps 751 mmHg 72%
    12:00 +11°C° 0 mm 1 mps 751 mmHg 70%
    13:00 +12°C° 0 mm 1 mps 751 mmHg 67%
    14:00 +12°C° 0 mm 1 mps 750 mmHg 65%
    15:00 +11°C° 0 mm 1 mps 750 mmHg 69%
    16:00 +9°C° 0 mm 0 mps 750 mmHg 73%
    17:00 +9°C° 0 mm 0 mps 750 mmHg 77%
    18:00 +9°C° 0 mm 1 mps 750 mmHg 78%
    19:00 +9°C° 0 mm 1 mps 750 mmHg 79%
    20:00 +9°C° 0 mm 1 mps 750 mmHg 79%
    21:00 +8°C° 0 mm 2 mps 750 mmHg 80%
    22:00 +7°C° 0 mm 2 mps 750 mmHg 81%
    23:00 +7°C° 0 mm 2 mps 750 mmHg 82%
    Show more